📊 Raw Sensor Data
Showing records 33226 to 33250 of 84,762 total
| ID | Distance (ft) | Battery V | Battery A | Int Temp (°F) | Int Humid (%) | Ext Temp (°F) | Solar V | RSSI | SNR | Time Stamp |
|---|---|---|---|---|---|---|---|---|---|---|
| 51549 | 14.6 | 3.95 | -5 | 61 | 44 | 62 | 0.10 | -68 | 7 | 09/09/2025 11:15 PM |
| 51548 | 14.6 | 3.95 | -5 | 61 | 44 | 62 | 0.00 | -67 | 8 | 09/09/2025 11:00 PM |
| 51547 | 14.6 | 3.95 | -5 | 61 | 44 | 62 | 0.00 | -67 | 8 | 09/09/2025 10:45 PM |
| 51546 | 14.6 | 3.95 | -5 | 62 | 44 | 62 | 0.00 | -66 | 7 | 09/09/2025 10:30 PM |
| 51545 | 14.6 | 3.95 | -5 | 62 | 44 | 63 | 0.00 | -68 | 8 | 09/09/2025 10:15 PM |
| 51544 | 14.6 | 4.01 | -5 | 62 | 45 | 63 | 0.00 | -67 | 8 | 09/09/2025 10:00 PM |
| 51543 | 14.6 | 4.01 | -5 | 63 | 45 | 63 | 0.00 | -67 | 8 | 09/09/2025 09:30 PM |
| 51542 | 14.6 | 3.96 | -5 | 63 | 45 | 64 | 0.00 | -66 | 8 | 09/09/2025 09:15 PM |
| 51541 | 14.6 | 3.96 | -5 | 63 | 45 | 64 | 0.10 | -67 | 8 | 09/09/2025 09:00 PM |
| 51540 | 14.6 | 3.96 | -5 | 64 | 46 | 64 | 0.00 | -67 | 8 | 09/09/2025 08:45 PM |
| 51539 | 14.6 | 4.01 | -5 | 64 | 46 | 65 | 0.00 | -68 | 8 | 09/09/2025 08:30 PM |
| 51538 | 14.6 | 3.96 | -5 | 65 | 46 | 65 | 0.00 | -66 | 9 | 09/09/2025 08:15 PM |
| 51537 | 14.6 | 3.96 | -5 | 65 | 47 | 66 | 0.00 | -67 | 8 | 09/09/2025 08:00 PM |
| 51536 | 14.6 | 3.96 | -5 | 66 | 47 | 66 | 0.00 | -66 | 7 | 09/09/2025 07:45 PM |
| 51535 | 14.6 | 4.01 | -9 | 67 | 47 | 67 | 3.30 | -68 | 8 | 09/09/2025 07:30 PM |
| 51534 | 14.6 | 3.95 | -24 | 69 | 47 | 68 | 3.30 | -67 | 8 | 09/09/2025 07:15 PM |
| 51533 | 14.6 | 4.03 | 0 | 70 | 47 | 69 | 4.50 | -67 | 8 | 09/09/2025 07:00 PM |
| 51532 | 14.6 | 4.03 | 11 | 71 | 47 | 70 | 4.50 | -68 | 7 | 09/09/2025 06:45 PM |
| 51531 | 14.7 | 4.06 | 0 | 72 | 48 | 70 | 4.50 | -75 | 7 | 09/09/2025 06:30 PM |
| 51530 | 14.6 | 4.03 | 0 | 73 | 48 | 71 | 4.50 | -75 | 8 | 09/09/2025 06:15 PM |
| 51529 | 14.7 | 4.02 | 13 | 74 | 49 | 71 | 4.50 | -75 | 7 | 09/09/2025 06:00 PM |
| 51528 | 14.8 | 4.08 | 31 | 77 | 48 | 73 | 4.60 | -74 | 8 | 09/09/2025 05:45 PM |
| 51527 | 14.7 | 4.00 | 0 | 78 | 49 | 73 | 5.10 | -74 | 8 | 09/09/2025 05:30 PM |
| 51526 | 14.7 | 4.00 | 0 | 81 | 47 | 76 | 5.10 | -75 | 8 | 09/09/2025 05:15 PM |
| 51525 | 14.8 | 4.00 | 6 | 82 | 47 | 75 | 5.10 | -74 | 8 | 09/09/2025 05:00 PM |